World > North America > United States > North Carolina

Hourly Washington, NC Regional Weather

Feedback E-mail the Weather

Latest News

Washington, NC Weather Maps

°F °C°F °C
Washington Weather Map
UTC Time: 5/24/2022, 21:29
Your Time:

Washington, NC Regional Weather

Expires:202205242200;;522077
ASUS42 KRAH 242110
RWRRAH
NORTH CAROLINA WEATHER ROUNDUP
NATIONAL WEATHER SERVICE RALEIGH NC
500 PM EDT TUE MAY 24 2022

NOTE: "FAIR" INDICATES FEW OR NO CLOUDS BELOW 12,000 FEET WITH NO
SIGNIFICANT WEATHER AND/OR OBSTRUCTIONS TO VISIBILITY.


NCZ011-015-027-028-043-044-047-080-103-242200-
NORTHEASTERN NORTH CAROLINA
  
CITY           SKY/WX    TMP DP  RH WIND       PRES   REMARKS
ROCKY MT-WILSO CLOUDY    70  65  84 N14       30.09R                  
GREENVILLE     CLOUDY    79  73  83 N12       30.03S                  
ELIZABETH CITY LGT RAIN  69  67  93 N10       30.09R                  
MANTEO         RAIN      71  69  93 SE6       30.08S                  
CAPE HATTERAS  FAIR      79  72  79 S10       30.07R                  
$$
 

SKY/WX - Weather  TMP - Temperature  DP - Dew Point  RH - Humidity
WIND - Wind Direction/Speed PRES - Barometric Pressure VSB - Visibility
WCI - Wind Chill Index E13G22 Wind - East Wind 13 mph/Gusts of 22 mph

Trending Headlines

Washington Radar Loop



Washington Quick Facts


National Two Day Weather Forecast


E-mail the Washington Weather Forecast

Voice your opinion or tell us about page issues...